KK4OHF Weather Reports


time (UTC)temp
C
wind
direction
speed
KPH
gust
KPH
rain 1hr
cm
rain 24hr
cm
rain mn
cm
humidity
%
barometer
mb
20260902022006 26 355 0.0 1.6 0.00 0.00 0.00 83 1017.9
20260902021505 26 355 0.0 1.6 0.00 0.00 0.00 83 1017.9
20260902021006 26 355 0.0 0.0 0.00 0.00 0.00 83 1017.9
20260902020505 26 355 0.0 0.0 0.00 0.00 0.00 83 1017.9
20260902020004 26 355 0.0 1.6 0.00 0.00 0.00 82 1017.8
20260902015506 27 355 0.0 1.6 0.00 0.00 0.00 82 1017.8
20260902014506 27 355 0.0 0.0 0.00 0.00 0.00 81 1017.8
20260902013505 27 355 0.0 0.0 0.00 0.00 0.00 81 1017.5
20260902012005 27 355 0.0 0.0 0.00 0.00 0.00 80 1017.4
20260902011504 28 355 0.0 0.0 0.00 0.00 0.00 79 1017.4
20260902011006 28 355 0.0 1.6 0.00 0.00 0.00 79 1017.4
20260902010505 28 355 0.0 0.0 0.00 0.00 0.00 79 1017.4
20260902010005 28 355 0.0 1.6 0.00 0.00 0.00 78 1017.1
20260902005505 28 355 0.0 1.6 0.00 0.00 0.00 78 1017.1
20260902005005 28 355 0.0 1.6 0.00 0.00 0.00 77 1017.1
20260902004505 29 355 0.0 1.6 0.00 0.00 0.00 76 1017.1
20260902004005 29 355 0.0 1.6 0.00 0.00 0.00 76 1017.4
20260902003005 30 355 0.0 0.0 0.00 0.00 0.00 75 1017.4
20260902002504 30 355 0.0 0.0 0.00 0.00 0.00 74 1017.4
20260902002005 30 355 0.0 0.0 0.00 0.00 0.00 74 1017.4
20260902001505 30 355 0.0 0.0 0.00 0.00 0.00 73 1017.4
20260902001005 31 355 0.0 0.0 0.00 0.00 0.00 72 1017.4
20260902000005 31 355 0.0 0.0 0.00 0.00 0.00 70 1017.4
20260901235505 31 355 0.0 0.0 0.00 0.00 0.00 69 1017.4
20260901235006 31 355 0.0 0.0 0.00 0.00 0.00 68 1017.4
20260901234005 32 355 0.0 0.0 0.00 0.00 0.00 66 1017.4
20260901233504 32 355 0.0 0.0 0.00 0.00 0.00 65 1017.4
20260901231505 32 355 0.0 0.0 0.00 0.00 0.00 59 1017.4
20260901230505 32 355 0.0 0.0 0.00 0.00 0.00 57 1017.4
20260901230005 32 355 0.0 1.6 0.00 0.00 0.00 56 1017.4
20260901225005 32 355 0.0 1.6 0.00 0.00 0.00 55 1017.4
20260901224005 33 355 0.0 3.2 0.00 0.00 0.00 54 1017.4
20260901223505 33 355 0.0 3.2 0.00 0.00 0.00 52 1017.4
20260901223006 33 355 0.0 3.2 0.00 0.00 0.00 52 1017.4
20260901222505 33 355 1.6 3.2 0.00 0.00 0.00 53 1017.4
20260901222006 33 116 1.6 3.2 0.00 0.00 0.00 52 1017.3
20260901221505 33 116 1.6 3.2 0.00 0.00 0.00 53 1017.3
20260901221005 33 116 0.0 3.2 0.00 0.00 0.00 52 1017.3
20260901220505 33 67 0.0 1.6 0.00 0.00 0.00 52 1017.3
20260901220005 33 67 0.0 3.2 0.00 0.00 0.00 51 1017.3
20260901215505 33 12 1.6 3.2 0.00 0.00 0.00 51 1017.3
20260901215005 33 130 0.0 3.2 0.00 0.00 0.00 53 1017.3
20260901213505 33 355 3.2 4.8 0.00 0.00 0.00 51 1017.4
20260901213005 33 95 1.6 3.2 0.00 0.00 0.00 51 1017.4
20260901212505 33 341 1.6 4.8 0.00 0.00 0.00 51 1017.4
20260901212006 33 345 3.2 4.8 0.00 0.00 0.00 51 1017.4
20260901211505 33 11 3.2 4.8 0.00 0.00 0.00 50 1017.4
20260901211005 33 15 3.2 4.8 0.00 0.00 0.00 50 1017.4
20260901210505 33 344 3.2 8.0 0.00 0.00 0.00 50 1017.4
20260901210004 33 336 3.2 4.8 0.00 0.00 0.00 49 1017.6
20260901205504 33 327 1.6 4.8 0.00 0.00 0.00 49 1017.6
20260901205005 33 1 1.6 4.8 0.00 0.00 0.00 50 1017.6
20260901204505 33 5 1.6 4.8 0.00 0.00 0.00 50 1017.6
20260901204005 33 15 0.0 1.6 0.00 0.00 0.00 50 1017.9
20260901203506 33 13 1.6 4.8 0.00 0.00 0.00 49 1017.9
20260901203006 33 348 3.2 4.8 0.00 0.00 0.00 48 1017.9
20260901202504 34 87 0.0 3.2 0.00 0.00 0.00 49 1017.9
20260901202005 33 225 0.0 3.2 0.00 0.00 0.00 51 1017.9
20260901201006 33 33 3.2 4.8 0.00 0.00 0.00 49 1018.1
20260901200505 33 302 1.6 3.2 0.00 0.00 0.00 49 1018.1
20260901195505 34 3 3.2 4.8 0.00 0.00 0.00 49 1018.6
20260901195005 33 32 1.6 4.8 0.00 0.00 0.00 53 1018.6
20260901194506 34 23 1.6 3.2 0.00 0.00 0.00 50 1018.6
20260901194005 35 113 3.2 4.8 0.00 0.00 0.00 48 1018.6
20260901193505 34 156 1.6 8.0 0.00 0.00 0.00 48 1018.6
20260901193006 34 125 0.0 4.8 0.00 0.00 0.00 49 1018.6
20260901192505 34 100 0.0 4.8 0.00 0.00 0.00 48 1018.6
20260901192005 34 124 3.2 4.8 0.00 0.00 0.00 49 1018.6
20260901191005 33 19 3.2 9.7 0.00 0.00 0.00 52 1019.0
20260901190506 33 14 3.2 4.8 0.00 0.00 0.00 49 1019.0
20260901190005 33 87 3.2 8.0 0.00 0.00 0.00 51 1019.0
20260901185506 33 248 1.6 3.2 0.00 0.00 0.00 52 1019.0
20260901185005 33 309 1.6 3.2 0.00 0.00 0.00 54 1019.0
20260901184504 33 65 1.6 3.2 0.00 0.00 0.00 53 1019.0
20260901184005 33 15 3.2 4.8 0.00 0.00 0.00 54 1019.0
20260901183006 33 72 4.8 9.7 0.00 0.00 0.00 52 1019.3
20260901182504 33 13 1.6 4.8 0.00 0.00 0.00 54 1019.3
20260901181505 33 9 1.6 3.2 0.00 0.00 0.00 53 1019.3
20260901181004 33 8 3.2 4.8 0.00 0.00 0.00 52 1019.3
20260901180505 33 44 1.6 4.8 0.00 0.00 0.00 53 1019.3
20260901180005 33 99 1.6 4.8 0.00 0.00 0.00 54 1019.4
20260901175506 33 12 3.2 4.8 0.00 0.00 0.00 53 1019.4
20260901175006 33 33 3.2 4.8 0.00 0.00 0.00 53 1019.5
20260901174506 33 14 3.2 4.8 0.00 0.00 0.00 54 1019.5
20260901174008 32 35 1.6 8.0 0.00 0.00 0.00 55 1019.5
20260901173505 32 20 3.2 8.0 0.00 0.00 0.00 53 1019.5
20260901173005 33 5 3.2 4.8 0.00 0.00 0.00 53 1019.6
20260901172505 32 75 1.6 9.7 0.00 0.00 0.00 54 1019.6
20260901172006 32 30 1.6 4.8 0.00 0.00 0.00 57 1020.0
20260901171505 32 19 3.2 8.0 0.00 0.00 0.00 55 1020.0
20260901171005 33 21 4.8 9.7 0.00 0.00 0.00 54 1020.0
20260901170505 32 12 1.6 4.8 0.00 0.00 0.00 56 1020.0
20260901170005 33 12 3.2 4.8 0.00 0.00 0.00 56 1020.1
20260901165505 32 12 1.6 4.8 0.00 0.00 0.00 58 1020.1
20260901165005 32 76 1.6 4.8 0.00 0.00 0.00 57 1020.1
20260901164505 32 10 3.2 4.8 0.00 0.00 0.00 58 1020.1
20260901164005 32 293 1.6 4.8 0.00 0.00 0.00 58 1020.1
20260901163505 32 346 1.6 4.8 0.00 0.00 0.00 61 1020.1
20260901163005 32 303 1.6 4.8 0.00 0.00 0.00 59 1020.6
20260901162505 32 22 3.2 4.8 0.00 0.00 0.00 59 1020.6
20260901162006 32 18 3.2 8.0 0.00 0.00 0.00 60 1020.6
20260901161505 32 324 1.6 8.0 0.00 0.00 0.00 59 1020.6
20260901161005 32 283 3.2 8.0 0.00 0.00 0.00 59 1020.6
20260901160506 32 45 3.2 4.8 0.00 0.00 0.00 59 1020.6
20260901160005 32 11 1.6 3.2 0.00 0.00 0.00 60 1020.6
20260901155505 32 11 1.6 3.2 0.00 0.00 0.00 60 1020.6
20260901154505 32 38 1.6 9.7 0.00 0.00 0.00 61 1020.6
20260901154005 31 42 1.6 9.7 0.00 0.00 0.00 60 1020.6
20260901153505 31 55 3.2 4.8 0.00 0.00 0.00 60 1020.6
20260901152505 31 278 1.6 4.8 0.00 0.00 0.00 63 1020.6
20260901152005 31 206 3.2 4.8 0.00 0.00 0.00 62 1020.6
20260901151505 31 299 1.6 8.0 0.00 0.00 0.00 62 1020.6
20260901151005 31 244 3.2 8.0 0.00 0.00 0.00 62 1020.6
20260901150005 30 248 1.6 4.8 0.00 0.00 0.00 65 1020.6
20260901145506 30 7 0.0 0.0 0.00 0.00 0.00 67 1020.6
20260901145005 30 249 0.0 0.0 0.00 0.00 0.00 70 1020.6
20260901144505 30 147 0.0 0.0 0.00 0.00 0.00 70 1020.6
20260901144005 30 146 0.0 0.0 0.00 0.00 0.00 73 1020.6
20260901143005 30 244 0.0 1.6 0.00 0.00 0.00 71 1020.6
20260901142505 29 30 0.0 1.6 0.00 0.00 0.00 73 1020.6
20260901142005 29 30 0.0 3.2 0.00 0.00 0.00 73 1020.6
20260901141005 28 16 0.0 1.6 0.00 0.00 0.00 76 1020.6
20260901140505 27 16 0.0 1.6 0.00 0.00 0.00 76 1020.6
20260901135504 26 16 0.0 0.0 0.00 0.00 0.00 80 1020.5
20260901135005 26 16 0.0 3.2 0.00 0.00 0.00 83 1020.5
20260901134505 25 16 1.6 3.2 0.00 0.00 0.00 86 1020.6
20260901134005 23 16 1.6 3.2 0.00 0.00 0.00 89 1020.6
20260901133505 23 16 1.6 3.2 0.00 0.00 0.00 89 1020.6
20260901133005 23 16 1.6 4.8 0.00 0.00 0.00 89 1020.5
20260901132505 22 16 1.6 3.2 0.00 0.00 0.00 89 1020.5
20260901132005 22 16 1.6 3.2 0.00 0.00 0.00 89 1020.5
20260901131505 22 16 1.6 3.2 0.00 0.00 0.00 89 1020.5
20260901131006 22 16 1.6 3.2 0.00 0.00 0.00 89 1020.5
20260901130505 22 16 1.6 1.6 0.00 0.00 0.00 89 1020.5
20260901130005 22 16 0.0 0.0 0.00 0.00 0.00 89 1020.5
20260901125505 22 16 0.0 0.0 0.00 0.00 0.00 89 1020.5
20260901125005 21 16 0.0 1.6 0.00 0.00 0.00 89 1020.5
20260901124506 21 16 0.0 0.0 0.00 0.00 0.00 89 1020.5
20260901124005 21 16 0.0 0.0 0.00 0.00 0.00 89 1020.5
20260901123505 21 16 0.0 0.0 0.00 0.00 0.00 89 1020.5
20260901122505 20 16 0.0 0.0 0.00 0.00 0.00 89 1020.3
20260901122005 20 16 0.0 0.0 0.00 0.00 0.00 90 1020.0
20260901121506 20 16 0.0 0.0 0.00 0.00 0.00 90 1020.0
20260901121005 20 16 0.0 0.0 0.00 0.00 0.00 90 1020.0
20260901120505 20 16 0.0 1.6 0.00 0.00 0.00 90 1020.0
20260901120005 20 16 0.0 0.0 0.00 0.00 0.00 90 1019.8
20260901115506 20 16 0.0 0.0 0.00 0.00 0.00 90 1019.8
20260901114506 20 16 0.0 0.0 0.00 0.00 0.00 90 1019.8
20260901114006 20 16 0.0 0.0 0.00 0.00 0.00 90 1019.5
20260901113005 20 16 0.0 0.0 0.00 0.00 0.00 90 1019.3
20260901112505 20 16 0.0 0.0 0.00 0.00 0.00 90 1019.3
20260901111505 20 16 0.0 0.0 0.00 0.00 0.00 90 1019.3
20260901111005 20 16 0.0 0.0 0.00 0.00 0.00 90 1019.3
20260901110505 20 16 0.0 0.0 0.00 0.00 0.00 90 1019.3
20260901110005 20 16 0.0 0.0 0.00 0.00 0.00 90 1019.1
20260901105505 20 16 0.0 0.0 0.00 0.00 0.00 90 1019.1
20260901105005 20 16 0.0 0.0 0.00 0.00 0.00 90 1019.1
20260901104504 20 16 0.0 0.0 0.00 0.00 0.00 90 1019.1
20260901104005 20 16 0.0 0.0 0.00 0.00 0.00 90 1019.1
20260901103505 20 16 0.0 0.0 0.00 0.00 0.00 90 1019.1
20260901103005 20 16 0.0 0.0 0.00 0.00 0.00 90 1018.9
20260901102505 20 16 0.0 0.0 0.00 0.00 0.00 90 1018.9
20260901102006 20 16 0.0 0.0 0.00 0.00 0.00 90 1018.9
20260901101505 20 16 0.0 0.0 0.00 0.00 0.00 90 1018.9
20260901101006 20 16 0.0 0.0 0.00 0.00 0.00 90 1018.9
20260901100506 20 16 0.0 0.0 0.00 0.00 0.00 90 1018.9
20260901100005 20 16 0.0 0.0 0.00 0.00 0.00 90 1018.9
20260901095506 20 16 0.0 1.6 0.00 0.00 0.00 90 1018.9
20260901094506 20 16 0.0 0.0 0.00 0.00 0.00 90 1019.0
20260901093505 20 16 0.0 0.0 0.00 0.00 0.00 89 1019.0
20260901092006 21 16 0.0 1.6 0.00 0.00 0.00 89 1018.7
20260901091504 21 16 0.0 0.0 0.00 0.00 0.00 90 1018.7
20260901091005 21 16 0.0 0.0 0.00 0.00 0.00 90 1018.7
20260901090005 21 16 0.0 0.0 0.00 0.00 0.00 90 1018.7
20260901085504 21 16 0.0 0.0 0.00 0.00 0.00 90 1018.7
20260901085006 21 16 0.0 0.0 0.00 0.00 0.00 90 1018.7
20260901084006 21 16 0.0 0.0 0.00 0.00 0.00 89 1018.7
20260901083506 21 16 0.0 0.0 0.00 0.00 0.00 89 1018.7
20260901083013 21 16 0.0 1.6 0.00 0.00 0.00 89 1018.7
20260901082005 21 16 0.0 1.6 0.00 0.00 0.00 89 1018.6
20260901081005 21 16 0.0 1.6 0.00 0.00 0.00 89 1018.6
20260901080505 21 16 0.0 0.0 0.00 0.00 0.00 89 1018.6
20260901080005 21 16 0.0 0.0 0.00 0.00 0.00 89 1018.4
20260901075505 21 16 0.0 0.0 0.00 0.00 0.00 89 1018.4
20260901075006 21 16 0.0 0.0 0.00 0.00 0.00 89 1018.5
20260901074504 21 16 0.0 0.0 0.00 0.00 0.00 89 1018.5
20260901074005 21 16 0.0 0.0 0.00 0.00 0.00 89 1018.5
20260901073005 21 16 0.0 1.6 0.00 0.00 0.00 89 1018.4
20260901072505 21 16 0.0 1.6 0.00 0.00 0.00 89 1018.4
20260901072005 21 16 0.0 0.0 0.00 0.00 0.00 89 1018.6
20260901071505 21 16 0.0 0.0 0.00 0.00 0.00 89 1018.6
20260901071006 21 16 0.0 0.0 0.00 0.00 0.00 89 1018.6
20260901070506 21 16 0.0 0.0 0.00 0.00 0.00 89 1018.6
20260901070005 21 16 0.0 0.0 0.00 0.00 0.00 89 1018.7
20260901065505 21 16 0.0 0.0 0.00 0.00 0.00 89 1018.7
20260901065005 21 16 0.0 0.0 0.00 0.00 0.00 89 1018.7
20260901064505 21 16 0.0 0.0 0.00 0.00 0.00 89 1018.7
20260901063505 21 16 0.0 0.0 0.00 0.00 0.00 89 1018.7
20260901062505 21 16 0.0 0.0 0.00 0.00 0.00 89 1018.9
20260901062005 22 16 0.0 0.0 0.00 0.00 0.00 89 1018.9
20260901061506 22 16 0.0 0.0 0.00 0.00 0.00 89 1018.9
20260901061005 22 16 0.0 0.0 0.00 0.00 0.00 89 1018.9
20260901060505 22 16 0.0 1.6 0.00 0.00 0.00 88 1018.9
20260901060006 22 16 0.0 0.0 0.00 0.00 0.00 89 1019.0
20260901055505 22 16 0.0 0.0 0.00 0.00 0.00 89 1019.0
20260901055006 22 16 0.0 0.0 0.00 0.00 0.00 88 1019.0
20260901054505 22 16 0.0 0.0 0.00 0.00 0.00 88 1019.0
20260901054005 22 16 0.0 0.0 0.00 0.00 0.00 88 1019.0
20260901053505 22 16 0.0 0.0 0.00 0.00 0.00 88 1019.0
20260901053005 22 16 0.0 0.0 0.00 0.00 0.00 88 1019.0
20260901052505 22 16 0.0 0.0 0.00 0.00 0.00 88 1019.0
20260901051505 22 16 0.0 0.0 0.00 0.00 0.00 88 1019.0
20260901051006 22 16 0.0 0.0 0.00 0.00 0.00 88 1019.0
20260901050505 22 16 0.0 1.6 0.00 0.00 0.00 88 1019.0
20260901050005 22 16 0.0 1.6 0.00 0.00 0.00 88 1019.0
20260901045005 22 16 0.0 0.0 0.00 0.00 0.00 88 1019.0
20260901044506 22 16 0.0 0.0 0.00 0.00 0.00 88 1019.0
20260901043505 22 16 0.0 1.6 0.00 0.00 0.00 88 1019.0
20260901042005 23 16 0.0 0.0 0.00 0.00 0.00 87 1019.0
20260901041505 23 16 0.0 0.0 0.00 0.00 0.00 87 1019.0
20260901041022 23 16 0.0 0.0 0.00 0.00 0.00 87 1019.0
20260901035506 23 16 0.0 0.0 0.00 0.00 0.00 87 1019.0
20260901035004 23 16 0.0 0.0 0.00 0.00 0.00 87 1019.2
20260901034505 23 16 0.0 0.0 0.00 0.00 0.00 87 1019.2
20260901033006 23 16 0.0 0.0 0.00 0.00 0.00 86 1019.0
20260901032006 23 16 0.0 0.0 0.00 0.00 0.00 86 1019.0
20260901031505 23 16 0.0 1.6 0.00 0.00 0.00 86 1019.0
20260901031005 23 16 0.0 0.0 0.00 0.00 0.00 86 1019.0
20260901030506 24 16 0.0 0.0 0.00 0.00 0.00 85 1019.0
20260901030005 24 16 0.0 0.0 0.00 0.00 0.00 85 1019.2
20260901025505 24 16 0.0 0.0 0.00 0.00 0.00 85 1019.2
20260901025005 24 16 0.0 0.0 0.00 0.00 0.00 85 1019.2
20260901024505 24 16 0.0 0.0 0.00 0.00 0.00 85 1019.1
20260901024005 24 16 0.0 0.0 0.00 0.00 0.00 85 1019.1
20260901023504 25 16 0.0 0.0 0.00 0.00 0.00 84 1019.1
20260901023005 25 16 0.0 0.0 0.00 0.00 0.00 84 1018.5
20260901022505 25 16 0.0 0.0 0.00 0.00 0.00 84 1018.5